Tracking 30703 objects as of 13-Jun-2025
HD Live streaming from Space Station
objects crossing your sky now

ONEWEB-0672

Track ONEWEB-0672 now!
10-day predictions
ONEWEB-0672 is classified as:


NORAD ID: 55831
Int'l Code: 2023-029AM
Perigee: 1,187.4 km
Apogee: 1,190.4 km
Inclination: 87.9 °
Period: 109.0 minutes
Semi major axis: 7559 km
RCS: Unknown
Launch date: March 9, 2023
Source: United Kingdom (UK)
Launch site: AIR FORCE EASTERN TEST RANGE (AFETR)
Your satellite tracking list
Your tracking list is empty




NASA's NSSDC Master Catalog

Two Line Element Set (TLE):
1 55831U 23029AM  25163.77925233  .00000057  00000-0  10945-3 0  9997
2 55831  87.9261 348.0108 0001949  81.3502 278.7852 13.20770532112387
Source of the keplerian elements: AFSPC